| time (UTC) | temp F | wind direction | speed MPH | gust MPH | rain 1hr in | rain 24hr in | rain mn in | humidity % | barometer mb |
| 20260504050025 | 38 | 106 | 11.0 | 18.0 | 0.01 | 1.09 | 0.02 | 95 | 975.4 |
| 20260504044521 | 38 | 121 | 14.0 | 25.0 | 0.01 | 1.09 | 0.01 | 95 | 976.1 |
| 20260504043017 | 38 | 81 | 10.0 | 16.0 | 0.01 | 1.09 | 0.01 | 95 | 977.1 |
| 20260504041512 | 39 | 112 | 9.0 | 13.0 | 0.01 | 1.09 | 0.01 | 95 | 977.9 |
| 20260504040007 | 39 | 103 | 10.0 | 16.0 | 0.01 | 1.09 | 0.01 | 95 | 978.8 |
| 20260504034503 | 39 | 103 | 6.0 | 16.0 | 0.00 | 1.08 | 0.00 | 95 | 979.7 |
| 20260504033123 | 39 | 103 | 12.0 | 18.0 | 0.00 | 1.08 | 0.00 | 95 | 980.1 |
| 20260504031559 | 40 | 124 | 7.0 | 14.0 | 0.01 | 1.08 | 0.00 | 96 | 980.9 |
| 20260504030104 | 40 | 115 | 3.0 | 11.0 | 0.01 | 1.08 | 0.00 | 97 | 981.4 |
| 20260504024550 | 40 | 105 | 6.0 | 12.0 | 0.02 | 1.08 | 1.08 | 97 | 981.9 |
| 20260504023046 | 38 | 101 | 7.0 | 13.0 | 0.04 | 1.08 | 1.08 | 96 | 982.3 |
| 20260504021546 | 38 | 104 | 4.0 | 12.0 | 0.06 | 1.07 | 1.07 | 96 | 983.0 |
| 20260504020039 | 38 | 66 | 3.0 | 13.0 | 0.11 | 1.07 | 1.07 | 96 | 983.7 |
| 20260504014536 | 38 | 10 | 4.0 | 17.0 | 0.15 | 1.06 | 1.06 | 96 | 984.9 |
| 20260504013036 | 38 | 360 | 8.0 | 21.0 | 0.17 | 1.04 | 1.04 | 96 | 985.6 |
| 20260504011528 | 38 | 355 | 9.0 | 22.0 | 0.19 | 1.01 | 1.01 | 96 | 986.8 |
| 20260504010024 | 38 | 51 | 6.0 | 18.0 | 0.17 | 0.96 | 0.96 | 96 | 988.1 |
| 20260504004624 | 38 | 98 | 9.0 | 20.0 | 0.21 | 0.91 | 0.91 | 96 | 988.5 |
| 20260504003019 | 38 | 19 | 8.0 | 18.0 | 0.24 | 0.87 | 0.87 | 96 | 989.1 |
| 20260504001529 | 37 | 8 | 11.0 | 23.0 | 0.25 | 0.82 | 0.82 | 96 | 989.8 |
| 20260504000013 | 37 | 333 | 12.0 | 23.0 | 0.24 | 0.78 | 0.78 | 96 | 990.6 |
| 20260503234516 | 37 | 10 | 9.0 | 20.0 | 0.17 | 0.69 | 0.69 | 96 | 991.6 |
| 20260503233006 | 37 | 66 | 8.0 | 20.0 | 0.14 | 0.63 | 0.63 | 96 | 993.0 |
| 20260503231503 | 37 | 40 | 7.0 | 16.0 | 0.13 | 0.56 | 0.56 | 96 | 993.8 |
| 20260503230113 | 37 | 65 | 5.0 | 14.0 | 0.16 | 0.54 | 0.54 | 96 | 994.8 |
| 20260503224559 | 37 | 63 | 6.0 | 16.0 | 0.24 | 0.52 | 0.52 | 96 | 995.5 |
| 20260503223110 | 37 | 355 | 4.0 | 13.0 | 0.26 | 0.49 | 0.49 | 96 | 996.6 |
| 20260503221554 | 37 | 108 | 7.0 | 14.0 | 0.28 | 0.44 | 0.44 | 96 | 996.8 |
| 20260503220054 | 36 | 66 | 6.0 | 14.0 | 0.25 | 0.38 | 0.38 | 96 | 996.9 |
| 20260503214557 | 36 | 45 | 7.0 | 16.0 | 0.16 | 0.28 | 0.28 | 96 | 996.8 |
| 20260503213051 | 35 | 52 | 7.0 | 16.0 | 0.10 | 0.23 | 0.23 | 95 | 996.6 |
| 20260503211547 | 35 | 63 | 8.0 | 17.0 | 0.05 | 0.17 | 0.17 | 95 | 998.5 |
| 20260503210044 | 35 | 40 | 7.0 | 15.0 | 0.02 | 0.13 | 0.13 | 95 | 999.1 |
| 20260503204544 | 35 | 62 | 8.0 | 16.0 | 0.03 | 0.13 | 0.13 | 95 | 999.8 |
| 20260503203039 | 35 | 62 | 9.0 | 21.0 | 0.05 | 0.13 | 0.13 | 95 | 1000.1 |
| 20260503201538 | 36 | 360 | 9.0 | 18.0 | 0.07 | 0.12 | 0.12 | 94 | 1000.4 |
| 20260503200034 | 36 | 25 | 4.0 | 14.0 | 0.10 | 0.11 | 0.11 | 94 | 1001.2 |
| 20260503194537 | 36 | 56 | 5.0 | 16.0 | 0.09 | 0.09 | 0.09 | 94 | 1002.4 |
| 20260503193030 | 37 | 45 | 3.0 | 11.0 | 0.07 | 0.08 | 0.08 | 93 | 1002.5 |
| 20260503191525 | 37 | 69 | 3.0 | 14.0 | 0.04 | 0.05 | 0.05 | 93 | 1003.9 |
| 20260503190036 | 37 | 62 | 5.0 | 12.0 | 0.00 | 0.01 | 0.01 | 92 | 1005.1 |
| 20260503184521 | 38 | 66 | 5.0 | 10.0 | 0.00 | 0.01 | 0.01 | 92 | 1005.8 |
| 20260503183019 | 38 | 27 | 4.0 | 11.0 | 0.00 | 0.01 | 0.01 | 92 | 1006.3 |
| 20260503181534 | 38 | 36 | 2.0 | 9.0 | 0.00 | 0.01 | 0.01 | 91 | 1007.1 |
| 20260503180024 | 39 | 84 | 4.0 | 10.0 | 0.00 | 0.01 | 0.01 | 91 | 1007.7 |
| 20260503174510 | 39 | 79 | 5.0 | 10.0 | 0.00 | 0.01 | 0.01 | 90 | 1007.8 |
| 20260503173010 | 40 | 87 | 5.0 | 8.0 | 0.00 | 0.01 | 0.01 | 89 | 1008.5 |
| 20260503171520 | 41 | 79 | 3.0 | 8.0 | 0.00 | 0.01 | 0.01 | 87 | 1008.7 |
| 20260503081550 | 32 | 167 | 0.0 | 0.0 | 0.00 | 0.01 | 0.00 | 96 | 1015.5 |
| 20260503071547 | 31 | 167 | 0.0 | 0.0 | 0.00 | 0.02 | 0.00 | 96 | 1015.6 |
| 20260503054541 | 31 | 167 | 1.0 | 2.0 | 0.00 | 0.44 | 0.00 | 96 | 1015.9 |